Stations météo

Publicité
Avord, France (7257): Température de l'air & dewpoint: 21.06.2019 12:00:00 - 27.06.2019 12:00:00 (CEST)Avord, France (7257): Température de l'air 5cm: 21.06.2019 12:00:00 - 27.06.2019 12:00:00 (CEST)Avord, France (7257): Température de l'air -20cm & Température de l'air -100cm: 21.06.2019 12:00:00 - 27.06.2019 12:00:00 (CEST)Avord, France (7257): Vitesse du vent & gusts: 21.06.2019 12:00:00 - 27.06.2019 12:00:00 (CEST)Avord, France (7257): Direction du vent: 21.06.2019 12:00:00 - 27.06.2019 12:00:00 (CEST)Avord, France (7257): reduced air pressure: 21.06.2019 12:00:00 - 27.06.2019 12:00:00 (CEST)Avord, France (7257): visibility: 21.06.2019 12:00:00 - 27.06.2019 12:00:00 (CEST)Avord, France (7257): Quantités de précipitations: 21.06.2019 12:00:00 - 27.06.2019 12:00:00 (CEST)
Date & Time tt [°C] td [°C] tt 5cm [°C] tt -20cm [°C] tt -100cm [°C] ff [km/h] ff [knt] fx [km/h] fx [knt] dd ppp [hPa] vv [km] rr [mm]
27.06.2019 12:00:00 33,2 18,6 40,7 22,7 17,1 7 4 19 11 ESE 1019,5 32 0,0
27.06.2019 11:00:00 31,0 19,0 33,7 22,7 17,1 11 6 21 12 ESE 1019,7 24 0,0
27.06.2019 10:00:00 28,9 18,7 29,2 22,8 17,1 14 7 22 12 ESE 1019,9 19 0,0
27.06.2019 09:00:00 26,4 19,3 24,9 23,0 17,1 14 8 22 12 E 1019,9 16 0,0
27.06.2019 08:00:00 24,0 19,1 20,4 23,0 17,1 12 6 17 9 E 1019,7 24 0,0
27.06.2019 07:00:00 21,5 18,3 18,4 23,1 17,1 7 4 16 9 ENE 1019,8 20 0,0
27.06.2019 06:00:00 20,3 17,7 18,4 23,2 17,0 13 7 19 10 ENE 1019,5 26 0,0
27.06.2019 05:00:00 22,4 18,0 19,7 23,3 17,0 13 7 19 10 E 1019,1 32 0,0
27.06.2019 04:00:00 23,1 18,0 20,7 23,4 17,0 11 6 24 13 E 1018,7 39 0,0
27.06.2019 03:00:00 23,3 18,2 20,6 23,5 17,0 17 9 23 12 E 1018,7 38 0,0
27.06.2019 02:00:00 23,3 18,2 21,0 23,5 17,0 13 7 17 9 E 1019,0 40 0,0
27.06.2019 01:00:00 24,3 18,5 21,4 23,6 17,0 13 7 19 11 ENE 1018,9 40 0,0
27.06.2019 00:00:00 25,5 18,2 22,4 23,5 17,0 16 9 22 12 ENE 1018,6 43 0,0
26.06.2019 23:00:00 26,9 18,2 23,5 23,5 16,9 16 9 23 13 ENE 1018,3 48 -
26.06.2019 22:00:00 28,9 19,5 24,9 23,5 17,0 15 8 19 10 ENE 1017,8 48 0,0
26.06.2019 21:00:00 31,8 20,4 28,9 23,3 16,9 13 7 23 12 E 1017,3 51 0,0
26.06.2019 20:00:00 35,3 18,0 34,2 23,2 17,0 14 8 24 13 E 1016,9 47 0,0
26.06.2019 19:00:00 36,8 15,3 38,2 23,0 16,9 13 7 24 13 ESE 1016,9 20 0,0
26.06.2019 18:00:00 36,8 14,7 41,4 22,7 16,9 13 7 27 15 ESE 1017,0 20 0,0
26.06.2019 17:00:00 36,4 14,4 42,7 22,5 16,9 14 7 25 13 ESE 1017,6 60 0,0
26.06.2019 16:00:00 36,0 15,7 46,8 22,3 16,9 9 5 22 12 SSE 1018,0 20 0,0
26.06.2019 15:00:00 35,3 14,0 44,4 22,0 16,9 10 6 23 12 SE 1018,4 47 0,0
26.06.2019 14:00:00 34,2 16,1 46,7 21,9 16,9 7 4 18 10 ESE 1018,8 34 0,0
26.06.2019 13:00:00 33,0 14,6 45,0 21,8 16,9 5 3 10 6 E 1019,4 19 0,0
26.06.2019 12:00:00 31,7 15,6 40,8 21,8 16,9 4 2 16 9 SW 1019,4 31 0,0
26.06.2019 11:00:00 29,1 16,6 32,5 21,8 16,9 7 4 19 10 SE 1019,5 20 0,0
26.06.2019 10:00:00 27,7 17,2 28,7 21,9 16,8 13 7 24 13 SE 1019,4 24 0,0
26.06.2019 09:00:00 26,2 17,8 23,6 22,0 16,8 16 9 24 13 ESE 1018,7 20 0,0
26.06.2019 08:00:00 22,9 17,4 18,9 22,1 16,8 14 7 21 11 E 1018,6 26 0,0
26.06.2019 07:00:00 19,8 15,9 17,1 22,3 16,8 10 6 18 10 E 1018,6 20 0,0
26.06.2019 06:00:00 19,6 15,7 16,9 22,4 16,8 13 7 20 11 E 1018,6 23 0,0
26.06.2019 05:00:00 19,6 15,7 17,4 22,5 16,8 12 7 18 10 E 1018,3 29 0,0
26.06.2019 04:00:00 20,8 15,6 18,7 22,5 16,8 15 8 24 13 ENE 1018,2 31 0,0
26.06.2019 03:00:00 21,5 16,0 19,8 22,6 16,8 18 10 22 12 ENE 1018,5 29 0,0
26.06.2019 02:00:00 22,7 16,0 18,8 22,7 16,8 14 8 17 9 ENE 1018,8 29 0,0
26.06.2019 01:00:00 22,5 16,1 18,9 22,7 16,8 8 4 14 8 E 1019,3 28 0,0
26.06.2019 00:00:00 23,0 16,5 20,0 22,7 16,8 12 7 16 8 ENE 1019,3 26 0,0
25.06.2019 23:00:00 26,4 15,4 21,4 22,7 16,8 12 7 18 10 NE 1018,7 30 0,0
25.06.2019 22:00:00 27,0 16,9 22,2 22,6 16,7 9 5 10 6 NNE 1018,2 31 0,0
25.06.2019 21:00:00 30,0 16,4 27,2 22,5 16,8 6 3 8 5 NNE 1017,7 27 0,0
25.06.2019 20:00:00 32,3 14,4 33,8 22,3 16,7 5 3 11 6 NW 1017,4 31 0,0
25.06.2019 19:00:00 32,1 14,3 34,7 22,1 16,7 8 4 16 9 W 1017,1 25 0,0
25.06.2019 18:00:00 32,2 16,1 35,3 21,8 16,7 10 5 18 10 WSW 1017,0 27 0,0
25.06.2019 17:00:00 31,7 14,4 35,7 21,6 16,7 11 6 21 11 WSW 1017,1 21 0,0
25.06.2019 16:00:00 32,0 13,2 39,0 21,4 16,7 8 5 24 13 W 1017,0 19 0,0
25.06.2019 15:00:00 31,6 14,3 39,0 21,2 16,7 13 7 26 14 SSW 1017,0 51 0,0
25.06.2019 14:00:00 30,9 12,3 38,3 21,0 16,7 12 7 29 16 WSW 1017,2 20 0,0
25.06.2019 13:00:00 29,8 12,7 37,7 21,0 16,7 10 5 26 14 SW 1017,2 59 0,0
25.06.2019 12:00:00 29,0 14,0 28,5 20,9 16,7 13 7 30 16 SW 1017,1 19 0,0
25.06.2019 11:00:00 26,2 12,6 25,4 20,9 16,6 21 12 30 16 SW 1017,0 60 0,0
25.06.2019 10:00:00 27,0 11,9 23,9 21,0 16,6 19 10 28 15 SW 1016,8 25 0,0
25.06.2019 09:00:00 24,4 16,1 22,7 21,1 16,6 8 4 12 6 S 1016,8 20 0,0
25.06.2019 08:00:00 22,1 17,5 19,5 21,2 16,6 6 3 12 7 SSE 1016,3 20 0,0
25.06.2019 07:00:00 20,6 16,0 19,1 21,2 16,6 4 2 10 5 SSE 1016,0 22 0,0
25.06.2019 06:00:00 21,1 16,1 18,6 21,3 16,6 7 4 10 6 SSE 1015,5 24 0,0
25.06.2019 05:00:00 21,4 16,4 18,1 21,4 16,6 7 4 11 6 S 1014,7 25 0,0
25.06.2019 04:00:00 22,2 16,0 18,7 21,4 16,6 7 4 16 9 S 1014,5 29 0,0
25.06.2019 03:00:00 21,0 17,8 19,1 21,4 16,6 7 4 10 5 S 1014,2 26 0,0
25.06.2019 02:00:00 23,7 17,9 20,8 21,4 16,6 4 2 11 6 SSW 1013,7 25 0,0
25.06.2019 01:00:00 24,8 18,0 22,5 21,4 16,6 9 5 16 8 S 1013,6 47 0,0
25.06.2019 00:00:00 25,2 17,9 22,5 21,4 16,6 11 6 22 12 SSE 1013,5 53 0,0
24.06.2019 23:00:00 25,1 17,6 23,0 21,4 16,6 12 7 23 12 SE 1013,4 57 0,0
24.06.2019 22:00:00 26,8 17,3 25,3 21,3 16,6 16 8 26 14 ESE 1012,7 60 0,0
24.06.2019 21:00:00 28,1 17,9 26,8 21,3 16,6 14 8 23 13 E 1012,6 54 0,0
24.06.2019 20:00:00 29,9 17,7 29,1 21,1 16,6 16 8 31 17 ESE 1012,4 60 0,0
24.06.2019 19:00:00 31,7 16,0 31,8 20,9 16,6 22 12 36 20 ESE 1012,0 48 0,0
24.06.2019 18:00:00 31,7 16,0 31,7 20,8 16,5 21 11 38 21 SE 1012,4 42 0,0
24.06.2019 17:00:00 32,6 17,2 32,5 20,6 16,5 22 12 34 19 ESE 1012,2 20 0,0
24.06.2019 16:00:00 32,4 14,5 33,5 20,4 16,5 20 11 32 17 E 1012,4 43 0,0
24.06.2019 15:00:00 32,1 15,1 33,3 20,2 16,5 16 9 29 15 ESE 1012,9 49 0,0
24.06.2019 14:00:00 32,0 15,1 34,3 20,0 16,5 19 10 30 16 ESE 1013,4 17 0,0
24.06.2019 13:00:00 31,0 15,4 33,2 20,0 16,5 19 11 32 17 E 1014,0 38 0,0
24.06.2019 12:00:00 30,4 17,1 31,8 19,9 16,5 18 10 27 14 E 1014,3 39 0,0
24.06.2019 11:00:00 27,8 17,6 28,8 19,9 16,5 11 6 19 11 ESE 1014,7 28 0,0
24.06.2019 10:00:00 25,8 17,7 24,9 20,0 16,5 9 5 19 10 ESE 1014,9 21 0,0
24.06.2019 09:00:00 23,4 16,9 21,3 20,0 16,5 13 7 19 10 ESE 1014,8 23 0,0
24.06.2019 08:00:00 20,0 16,8 18,1 20,1 16,5 10 5 14 7 E 1015,0 27 0,0
24.06.2019 07:00:00 18,6 15,8 15,9 20,2 16,5 5 3 19 10 NE 1015,1 43 0,0
24.06.2019 06:00:00 17,0 15,3 15,1 20,3 16,5 16 9 19 11 E 1014,7 31 0,0
24.06.2019 05:00:00 16,9 15,2 14,2 20,4 16,5 8 4 9 5 ENE 1014,9 35 0,0
24.06.2019 04:00:00 17,0 15,3 15,1 20,5 16,5 4 2 10 5 E 1015,0 36 0,0
24.06.2019 03:00:00 17,6 15,4 15,5 20,5 16,5 3 2 11 6 ENE 1015,6 48 0,0
24.06.2019 02:00:00 18,4 15,6 16,5 20,5 16,5 6 3 15 8 E 1015,3 51 0,0
24.06.2019 01:00:00 18,8 15,8 16,6 20,5 16,5 10 5 12 7 E 1015,1 60 0,0
24.06.2019 00:00:00 20,0 15,6 18,1 20,5 16,5 11 6 15 8 E 1014,9 60 0,0
23.06.2019 23:00:00 21,5 15,8 19,3 20,5 16,5 11 6 15 8 E 1014,6 60 0,0
23.06.2019 22:00:00 23,2 15,5 20,0 20,4 16,5 9 5 11 6 E 1013,9 60 0,0
23.06.2019 21:00:00 24,9 16,3 23,0 20,3 16,4 9 5 15 8 ESE 1013,3 60 0,0
23.06.2019 20:00:00 27,1 16,7 26,7 20,2 16,5 8 5 18 10 ESE 1012,9 33 0,0
23.06.2019 19:00:00 28,8 14,2 31,2 20,0 16,5 13 7 22 12 SE 1012,5 17 0,0
23.06.2019 18:00:00 29,0 13,2 30,3 19,9 16,5 13 7 32 17 SSE 1012,5 17 0,0
23.06.2019 17:00:00 27,8 15,8 28,4 19,6 16,5 15 8 29 16 SE 1013,0 20 0,0
23.06.2019 16:00:00 27,2 15,6 28,8 19,5 16,5 14 8 35 19 SE 1013,0 12 0,0
23.06.2019 15:00:00 27,4 17,0 32,3 19,3 16,4 20 11 37 20 SE 1012,9 8 0,0
23.06.2019 14:00:00 27,0 16,9 28,8 19,1 16,4 14 8 33 18 SE 1013,2 9 0,0
23.06.2019 13:00:00 25,5 16,9 27,4 19,1 16,4 16 8 30 16 SE 1013,6 9 0,0
23.06.2019 12:00:00 24,2 15,9 28,0 19,1 16,4 19 10 30 16 SE 1013,7 7 0,0
23.06.2019 11:00:00 23,6 15,9 24,6 19,1 16,4 17 9 30 16 ESE 1014,1 8 0,0
23.06.2019 10:00:00 21,5 15,8 21,5 19,2 16,4 18 10 29 15 ESE 1014,5 9 0,0
23.06.2019 09:00:00 18,9 15,0 18,4 19,2 16,4 19 10 28 15 SE 1014,8 10 0,0
23.06.2019 08:00:00 16,7 14,7 14,2 19,4 16,4 16 9 21 12 ESE 1014,9 11 0,0
23.06.2019 07:00:00 13,9 13,3 12,2 19,5 16,4 13 7 18 10 E 1015,1 11 0,2
23.06.2019 06:00:00 12,8 12,5 11,9 19,5 16,4 9 5 14 7 E 1015,4 8 0,0
23.06.2019 05:00:00 13,2 12,6 11,7 19,6 16,4 8 4 10 6 E 1015,7 12 0,0
23.06.2019 04:00:00 13,5 12,7 11,7 19,7 16,4 5 3 11 6 ENE 1015,8 12 0,0
23.06.2019 03:00:00 14,5 13,4 12,6 19,8 16,4 9 5 12 7 E 1015,8 19 0,0
23.06.2019 02:00:00 15,2 13,6 13,0 19,8 16,4 0 0 10 5 N 1016,3 19 0,0
23.06.2019 01:00:00 15,8 13,8 13,4 19,9 16,4 6 4 9 5 ESE 1016,5 34 0,0
23.06.2019 00:00:00 16,2 13,9 14,0 19,9 16,4 3 2 11 6 SSE 1017,1 36 0,0
22.06.2019 23:00:00 17,2 14,3 15,4 19,9 16,4 9 5 13 7 E 1016,8 39 0,0
22.06.2019 22:00:00 19,1 14,6 17,8 19,9 16,4 10 5 16 8 E 1016,3 52 0,0
22.06.2019 21:00:00 21,4 14,8 20,7 19,8 16,4 13 7 21 11 E 1015,9 54 0,0
22.06.2019 20:00:00 22,4 14,3 22,4 19,7 16,4 13 7 22 12 ENE 1015,7 49 0,0
22.06.2019 19:00:00 22,8 13,6 22,4 19,6 16,4 11 6 21 11 ENE 1015,7 48 0,0
22.06.2019 18:00:00 23,3 12,9 23,4 19,4 16,4 10 5 18 10 NE 1015,6 60 0,0
22.06.2019 17:00:00 23,5 13,1 24,4 19,3 16,4 14 7 26 14 NE 1016,0 60 0,0
22.06.2019 16:00:00 23,9 12,5 24,0 19,1 16,4 12 6 29 16 ENE 1016,3 56 0,0
22.06.2019 15:00:00 23,4 12,1 24,6 18,9 16,4 11 6 24 13 NNE 1017,1 60 0,0
22.06.2019 14:00:00 22,4 12,3 22,7 18,8 16,4 5 3 26 14 N 1017,6 19 0,0
22.06.2019 13:00:00 21,2 12,6 23,4 18,7 16,3 10 5 20 11 NNW 1018,0 56 0,0
22.06.2019 12:00:00 19,5 11,5 22,3 18,7 16,4 11 6 18 10 NNW 1018,4 48 0,0
22.06.2019 11:00:00 18,2 12,4 17,8 18,8 16,4 10 5 16 9 NE 1018,6 52 0,0
22.06.2019 10:00:00 17,0 11,5 15,8 18,8 16,4 6 4 15 8 NNE 1018,5 60 0,0
22.06.2019 09:00:00 15,6 11,6 15,5 18,9 16,3 7 4 11 6 NNW 1019,0 46 0,0
22.06.2019 08:00:00 15,0 12,3 13,8 19,0 16,3 4 2 8 4 NNW 1018,8 46 0,0
22.06.2019 07:00:00 14,2 12,4 13,6 19,1 16,3 7 4 10 5 W 1018,8 41 0,0
22.06.2019 06:00:00 14,5 11,6 13,8 19,1 16,3 8 4 14 7 NE 1018,7 50 0,0
22.06.2019 05:00:00 14,3 12,2 13,7 19,3 16,4 10 5 13 7 NE 1019,0 45 0,0
22.06.2019 04:00:00 14,5 12,2 13,7 19,3 16,3 4 2 16 8 N 1019,1 44 0,0
22.06.2019 03:00:00 14,8 11,6 13,6 19,4 16,3 12 6 21 11 NNE 1019,4 55 0,0
22.06.2019 02:00:00 15,0 11,8 13,6 19,5 16,3 16 9 22 12 NE 1019,8 57 0,0
22.06.2019 01:00:00 15,1 12,6 13,6 19,5 16,3 11 6 19 11 NNE 1019,9 10 0,4
22.06.2019 00:00:00 16,3 12,5 14,1 19,6 16,3 9 5 31 17 NNE 1019,6 10 1,8
21.06.2019 23:00:00 16,6 13,1 16,0 19,6 16,3 6 3 23 12 W 1019,9 48 0,0
21.06.2019 22:00:00 18,0 12,7 17,5 19,6 16,3 14 8 26 14 WNW 1019,1 50 0,0
21.06.2019 21:00:00 19,6 9,8 17,5 19,6 16,3 12 7 31 17 N 1018,3 47 0,0
21.06.2019 20:00:00 19,0 11,6 18,0 19,6 16,3 10 5 28 15 NNE 1018,1 50 0,0
21.06.2019 19:00:00 19,2 12,0 18,1 19,6 16,3 16 9 30 16 NNE 1017,8 16 0,0
21.06.2019 18:00:00 20,5 11,7 19,1 19,5 16,3 7 4 24 13 NNE 1017,9 47 0,0
21.06.2019 17:00:00 21,0 11,3 20,7 19,5 16,3 18 10 28 15 NE 1017,9 52 0,0
21.06.2019 16:00:00 21,6 11,3 22,1 19,3 16,2 19 10 27 15 NE 1017,8 50 0,0
21.06.2019 15:00:00 21,8 11,5 22,9 19,3 16,2 19 10 29 16 NE 1017,9 55 0,0
21.06.2019 14:00:00 21,4 11,4 23,0 19,2 16,2 19 11 36 19 NNE 1018,2 60 0,0
21.06.2019 13:00:00 21,4 12,0 22,1 19,2 16,2 19 10 29 16 ENE 1018,4 20 0,0
21.06.2019 12:00:00 20,7 10,5 21,3 19,2 16,2 18 10 29 15 NNE 1018,5 32 0,0

tt = Température de l'air
td = dewpoint
tt 5cm = Température de l'air 5cm
tt -20cm = Température de l'air -20cm
tt -100cm = Température de l'air -100cm
ff = Vitesse du vent
fx = gusts
dd = Direction du vent
ppp = reduced air pressure
vv = visibility
rr = Quantités de précipitations

stations d'obs. à proximité